Time,TemperatureF,DewpointF,PressureIn,WindDirection,WindDirectionDegrees,WindSpeedMPH,WindSpeedGustMPH,Humidity,HourlyPrecipIn,Conditions,Clouds,dailyrainin,SoftwareType,DateUTC
2013-08-13 00:03:00,82.7,36.2,29.77,WNW,299,0.0,0.0,19,0.00,,,0.00,Wunderground v.1.15,2013-08-13 07:03:00,
2013-08-13 00:08:00,82.3,35.9,29.77,WNW,299,0.0,0.0,19,0.00,,,0.00,Wunderground v.1.15,2013-08-13 07:08:00,
2013-08-13 00:14:00,82.1,35.7,29.77,WNW,299,0.0,0.0,19,0.00,,,0.00,Wunderground v.1.15,2013-08-13 07:14:00,
2013-08-13 00:19:00,81.8,36.8,29.77,WNW,299,0.0,0.0,20,0.00,,,0.00,Wunderground v.1.15,2013-08-13 07:19:00,
2013-08-13 00:25:00,81.3,36.4,29.77,WNW,299,0.0,0.0,20,0.00,,,0.00,Wunderground v.1.15,2013-08-13 07:25:00,
2013-08-13 00:30:00,81.3,36.4,29.77,WNW,299,0.0,0.0,20,0.00,,,0.00,Wunderground v.1.15,2013-08-13 07:30:00,
2013-08-13 00:36:00,81.8,35.5,29.77,WNW,299,0.0,0.0,19,0.00,,,0.00,Wunderground v.1.15,2013-08-13 07:36:00,
2013-08-13 00:41:00,82.1,35.7,29.77,WNW,299,0.0,0.0,19,0.00,,,0.00,Wunderground v.1.15,2013-08-13 07:41:00,
2013-08-13 00:47:00,82.2,37.1,29.77,WNW,299,0.0,0.0,20,0.00,,,0.00,Wunderground v.1.15,2013-08-13 07:47:00,
2013-08-13 00:52:00,82.0,37.0,29.77,WNW,299,0.0,0.0,20,0.00,,,0.00,Wunderground v.1.15,2013-08-13 07:52:00,
2013-08-13 00:57:00,81.6,36.6,29.77,WNW,299,0.0,0.0,20,0.00,,,0.00,Wunderground v.1.15,2013-08-13 07:57:00,
2013-08-13 01:03:00,80.7,37.1,29.77,WNW,299,0.0,0.0,21,0.00,,,0.00,Wunderground v.1.15,2013-08-13 08:03:00,
2013-08-13 01:08:00,80.0,36.5,29.77,WNW,299,0.0,0.0,21,0.00,,,0.00,Wunderground v.1.15,2013-08-13 08:08:00,
2013-08-13 01:14:00,79.2,37.1,29.77,WNW,299,0.0,0.0,22,0.00,,,0.00,Wunderground v.1.15,2013-08-13 08:14:00,
2013-08-13 01:19:00,78.6,36.6,29.78,WNW,299,0.0,0.0,22,0.00,,,0.00,Wunderground v.1.15,2013-08-13 08:19:00,
2013-08-13 01:25:00,77.8,37.0,29.78,WNW,299,0.0,0.0,23,0.00,,,0.00,Wunderground v.1.15,2013-08-13 08:25:00,
2013-08-13 01:30:00,77.3,36.6,29.78,WNW,299,0.0,0.0,23,0.00,,,0.00,Wunderground v.1.15,2013-08-13 08:30:00,
2013-08-13 01:36:00,77.1,36.4,29.78,WNW,299,0.0,0.0,23,0.00,,,0.00,Wunderground v.1.15,2013-08-13 08:36:00,
2013-08-13 01:42:00,77.0,37.4,29.78,WNW,299,0.0,0.0,24,0.00,,,0.00,Wunderground v.1.15,2013-08-13 08:42:00,
2013-08-13 01:47:00,76.7,37.2,29.78,WNW,299,0.0,0.0,24,0.00,,,0.00,Wunderground v.1.15,2013-08-13 08:47:00,
2013-08-13 01:53:00,76.0,36.6,29.78,WNW,299,0.0,0.0,24,0.00,,,0.00,Wunderground v.1.15,2013-08-13 08:53:00,
2013-08-13 01:58:00,75.7,36.3,29.78,WNW,299,0.0,0.0,24,0.00,,,0.00,Wunderground v.1.15,2013-08-13 08:58:00,
2013-08-13 02:03:00,75.7,36.3,29.78,WNW,299,0.0,0.0,24,0.00,,,0.00,Wunderground v.1.15,2013-08-13 09:03:00,
2013-08-13 02:08:00,75.6,37.3,29.78,WNW,299,0.0,0.0,25,0.00,,,0.00,Wunderground v.1.15,2013-08-13 09:08:00,
2013-08-13 02:13:00,75.6,37.3,29.78,WNW,299,0.0,0.0,25,0.00,,,0.00,Wunderground v.1.15,2013-08-13 09:13:00,
2013-08-13 02:18:00,75.7,37.4,29.78,WNW,299,0.0,0.0,25,0.00,,,0.00,Wunderground v.1.15,2013-08-13 09:18:00,
2013-08-13 02:23:00,75.9,36.5,29.78,WNW,299,0.0,0.0,24,0.00,,,0.00,Wunderground v.1.15,2013-08-13 09:23:00,
2013-08-13 02:28:00,76.0,36.6,29.78,WNW,299,0.0,0.0,24,0.00,,,0.00,Wunderground v.1.15,2013-08-13 09:28:00,
2013-08-13 02:33:00,76.0,37.6,29.78,WNW,299,0.0,0.0,25,0.00,,,0.00,Wunderground v.1.15,2013-08-13 09:33:00,
2013-08-13 02:38:00,75.8,37.5,29.78,WNW,299,0.0,1.0,25,0.00,,,0.00,Wunderground v.1.15,2013-08-13 09:38:00,
2013-08-13 02:43:00,75.9,37.5,29.78,WNW,299,0.0,0.0,25,0.00,,,0.00,Wunderground v.1.15,2013-08-13 09:43:00,
2013-08-13 02:48:00,75.9,37.5,29.78,WNW,299,0.0,0.0,25,0.00,,,0.00,Wunderground v.1.15,2013-08-13 09:48:00,
2013-08-13 02:53:00,76.0,37.6,29.78,WNW,299,0.0,0.0,25,0.00,,,0.00,Wunderground v.1.15,2013-08-13 09:53:00,
2013-08-13 02:58:00,76.1,37.7,29.78,WNW,299,0.0,0.0,25,0.00,,,0.00,Wunderground v.1.15,2013-08-13 09:58:00,
2013-08-13 03:03:00,75.8,37.5,29.78,WNW,299,0.0,0.0,25,0.00,,,0.00,Wunderground v.1.15,2013-08-13 10:03:00,
2013-08-13 03:08:00,75.4,37.1,29.78,WNW,299,0.0,0.0,25,0.00,,,0.00,Wunderground v.1.15,2013-08-13 10:08:00,
2013-08-13 03:13:00,75.1,37.9,29.79,WNW,299,0.0,0.0,26,0.00,,,0.00,Wunderground v.1.15,2013-08-13 10:13:00,
2013-08-13 03:18:00,74.9,37.7,29.78,WNW,299,0.0,0.0,26,0.00,,,0.00,Wunderground v.1.15,2013-08-13 10:18:00,
2013-08-13 03:23:00,74.8,38.6,29.79,WNW,299,0.0,0.0,27,0.00,,,0.00,Wunderground v.1.15,2013-08-13 10:23:00,
2013-08-13 03:28:00,74.4,38.2,29.79,WNW,299,0.0,0.0,27,0.00,,,0.00,Wunderground v.1.15,2013-08-13 10:28:00,
2013-08-13 03:33:00,73.9,37.8,29.79,WNW,299,0.0,0.0,27,0.00,,,0.00,Wunderground v.1.15,2013-08-13 10:33:00,
2013-08-13 03:38:00,73.4,37.4,29.79,WNW,299,0.0,0.0,27,0.00,,,0.00,Wunderground v.1.15,2013-08-13 10:38:00,
2013-08-13 03:43:00,72.9,37.9,29.79,WNW,299,0.0,0.0,28,0.00,,,0.00,Wunderground v.1.15,2013-08-13 10:43:00,
2013-08-13 03:48:00,72.5,37.5,29.79,WNW,299,0.0,0.0,28,0.00,,,0.00,Wunderground v.1.15,2013-08-13 10:48:00,
2013-08-13 03:53:00,72.3,37.4,29.79,WNW,299,0.0,0.0,28,0.00,,,0.00,Wunderground v.1.15,2013-08-13 10:53:00,
2013-08-13 03:58:00,72.1,38.1,29.79,WNW,299,0.0,0.0,29,0.00,,,0.00,Wunderground v.1.15,2013-08-13 10:58:00,
2013-08-13 04:03:00,71.9,37.9,29.78,WNW,299,0.0,0.0,29,0.00,,,0.00,Wunderground v.1.15,2013-08-13 11:03:00,
2013-08-13 04:08:00,71.8,37.8,29.79,WNW,299,0.0,0.0,29,0.00,,,0.00,Wunderground v.1.15,2013-08-13 11:08:00,
2013-08-13 04:13:00,71.5,37.6,29.79,WNW,299,0.0,0.0,29,0.00,,,0.00,Wunderground v.1.15,2013-08-13 11:13:00,
2013-08-13 04:18:00,71.3,37.4,29.79,WNW,299,0.0,0.0,29,0.00,,,0.00,Wunderground v.1.15,2013-08-13 11:18:00,
2013-08-13 04:23:00,71.3,38.2,29.79,WNW,299,0.0,0.0,30,0.00,,,0.00,Wunderground v.1.15,2013-08-13 11:23:00,
2013-08-13 04:28:00,71.2,38.2,29.79,WNW,299,0.0,0.0,30,0.00,,,0.00,Wunderground v.1.15,2013-08-13 11:28:00,
2013-08-13 04:33:00,71.0,38.0,29.79,WNW,299,0.0,2.0,30,0.00,,,0.00,Wunderground v.1.15,2013-08-13 11:33:00,
2013-08-13 04:38:00,70.9,38.7,29.79,WNW,299,1.0,2.0,31,0.00,,,0.00,Wunderground v.1.15,2013-08-13 11:38:00,
2013-08-13 04:43:00,71.5,39.3,29.78,WNW,299,2.0,4.0,31,0.00,,,0.00,Wunderground v.1.15,2013-08-13 11:43:00,
2013-08-13 04:49:00,71.9,38.8,29.79,WNW,299,0.0,4.0,30,0.00,,,0.00,Wunderground v.1.15,2013-08-13 11:49:00,
2013-08-13 04:54:00,71.9,38.8,29.79,WNW,299,0.0,2.0,30,0.00,,,0.00,Wunderground v.1.15,2013-08-13 11:54:00,
2013-08-13 04:59:00,71.8,38.7,29.79,WNW,299,2.0,4.0,30,0.00,,,0.00,Wunderground v.1.15,2013-08-13 11:59:00,
2013-08-13 05:04:00,71.6,38.5,29.79,WNW,299,0.0,4.0,30,0.00,,,0.00,Wunderground v.1.15,2013-08-13 12:04:00,
2013-08-13 05:09:00,71.6,38.5,29.79,WNW,299,0.0,4.0,30,0.00,,,0.00,Wunderground v.1.15,2013-08-13 12:09:00,
2013-08-13 05:14:00,71.6,38.5,29.80,WNW,299,0.0,1.0,30,0.00,,,0.00,Wunderground v.1.15,2013-08-13 12:14:00,
2013-08-13 05:19:00,71.7,39.4,29.80,WNW,299,0.0,1.0,31,0.00,,,0.00,Wunderground v.1.15,2013-08-13 12:19:00,
2013-08-13 05:24:00,71.9,40.4,29.80,WNW,299,0.0,0.0,32,0.00,,,0.00,Wunderground v.1.15,2013-08-13 12:24:00,
2013-08-13 05:29:00,71.9,40.4,29.80,WNW,299,0.0,0.0,32,0.00,,,0.00,Wunderground v.1.15,2013-08-13 12:29:00,
2013-08-13 05:34:00,71.9,41.2,29.81,WNW,299,0.0,0.0,33,0.00,,,0.00,Wunderground v.1.15,2013-08-13 12:34:00,
2013-08-13 05:39:00,72.0,42.1,29.81,WNW,299,0.0,0.0,34,0.00,,,0.00,Wunderground v.1.15,2013-08-13 12:39:00,
2013-08-13 05:44:00,72.1,42.2,29.81,WNW,299,0.0,0.0,34,0.00,,,0.00,Wunderground v.1.15,2013-08-13 12:44:00,
2013-08-13 05:49:00,72.1,42.2,29.81,WNW,299,0.0,0.0,34,0.00,,,0.00,Wunderground v.1.15,2013-08-13 12:49:00,
2013-08-13 05:54:00,72.0,42.1,29.81,WNW,299,0.0,0.0,34,0.00,,,0.00,Wunderground v.1.15,2013-08-13 12:54:00,
2013-08-13 05:59:00,72.0,42.1,29.81,WNW,299,0.0,0.0,34,0.00,,,0.00,Wunderground v.1.15,2013-08-13 12:59:00,
2013-08-13 06:04:00,72.0,42.1,29.82,WNW,299,0.0,0.0,34,0.00,,,0.00,Wunderground v.1.15,2013-08-13 13:04:00,
2013-08-13 06:09:00,72.1,42.9,29.82,WNW,299,0.0,2.0,35,0.00,,,0.00,Wunderground v.1.15,2013-08-13 13:09:00,
2013-08-13 06:14:00,72.2,43.0,29.82,WNW,299,0.0,0.0,35,0.00,,,0.00,Wunderground v.1.15,2013-08-13 13:14:00,
2013-08-13 06:19:00,72.6,42.6,29.82,WNW,299,2.0,5.0,34,0.00,,,0.00,Wunderground v.1.15,2013-08-13 13:19:00,
2013-08-13 06:24:00,72.9,42.9,29.83,WNW,299,0.0,6.0,34,0.00,,,0.00,Wunderground v.1.15,2013-08-13 13:24:00,
2013-08-13 06:29:00,73.2,43.1,29.83,WNW,299,0.0,6.0,34,0.00,,,0.00,Wunderground v.1.15,2013-08-13 13:29:00,
2013-08-13 06:34:00,73.5,43.4,29.83,WNW,299,5.0,6.0,34,0.00,,,0.00,Wunderground v.1.15,2013-08-13 13:34:00,
2013-08-13 06:39:00,73.7,44.3,29.83,WNW,299,0.0,7.0,35,0.00,,,0.00,Wunderground v.1.15,2013-08-13 13:39:00,
2013-08-13 06:44:00,73.8,44.4,29.84,WNW,299,1.0,5.0,35,0.00,,,0.00,Wunderground v.1.15,2013-08-13 13:44:00,
2013-08-13 06:49:00,74.0,44.6,29.84,WNW,299,4.0,5.0,35,0.00,,,0.00,Wunderground v.1.15,2013-08-13 13:49:00,
2013-08-13 06:54:00,74.2,44.8,29.84,WNW,299,5.0,6.0,35,0.00,,,0.00,Wunderground v.1.15,2013-08-13 13:54:00,
2013-08-13 06:59:00,74.4,44.2,29.84,WNW,299,6.0,7.0,34,0.00,,,0.00,Wunderground v.1.15,2013-08-13 13:59:00,
2013-08-13 07:04:00,74.7,44.5,29.84,WNW,299,0.0,6.0,34,0.00,,,0.00,Wunderground v.1.15,2013-08-13 14:04:00,
2013-08-13 07:10:00,75.1,44.8,29.84,WNW,299,1.0,2.0,34,0.00,,,0.00,Wunderground v.1.15,2013-08-13 14:10:00,
2013-08-13 07:15:00,75.6,45.2,29.84,WNW,299,2.0,5.0,34,0.00,,,0.00,Wunderground v.1.15,2013-08-13 14:15:00,
2013-08-13 07:20:00,76.0,44.8,29.84,WNW,299,4.0,4.0,33,0.00,,,0.00,Wunderground v.1.15,2013-08-13 14:20:00,
2013-08-13 07:25:00,76.5,45.2,29.84,WNW,299,5.0,7.0,33,0.00,,,0.00,Wunderground v.1.15,2013-08-13 14:25:00,
2013-08-13 07:30:00,77.2,45.0,29.84,WNW,300,2.0,3.0,32,0.00,,,0.00,Wunderground v.1.15,2013-08-13 14:30:00,
2013-08-13 07:35:00,77.5,44.5,29.84,WNW,290,5.0,7.0,31,0.00,,,0.00,Wunderground v.1.15,2013-08-13 14:35:00,
2013-08-13 07:40:00,77.7,44.6,29.84,WNW,284,7.0,8.0,31,0.00,,,0.00,Wunderground v.1.15,2013-08-13 14:40:00,
2013-08-13 07:45:00,78.4,45.3,29.84,West,280,5.0,8.0,31,0.00,,,0.00,Wunderground v.1.15,2013-08-13 14:45:00,
2013-08-13 07:50:00,79.0,44.9,29.84,West,279,4.0,4.0,30,0.00,,,0.00,Wunderground v.1.15,2013-08-13 14:50:00,
2013-08-13 07:55:00,79.5,45.3,29.84,West,279,0.0,6.0,30,0.00,,,0.00,Wunderground v.1.15,2013-08-13 14:55:00,
2013-08-13 08:00:00,79.9,44.8,29.84,West,279,0.0,2.0,29,0.00,,,0.00,Wunderground v.1.15,2013-08-13 15:00:00,
2013-08-13 08:05:00,80.2,45.1,29.85,West,279,2.0,6.0,29,0.00,,,0.00,Wunderground v.1.15,2013-08-13 15:05:00,
2013-08-13 08:10:00,80.3,45.1,29.85,West,276,5.0,5.0,29,0.00,,,0.00,Wunderground v.1.15,2013-08-13 15:10:00,
2013-08-13 08:15:00,80.4,45.2,29.85,West,274,6.0,7.0,29,0.00,,,0.00,Wunderground v.1.15,2013-08-13 15:15:00,
2013-08-13 08:20:00,80.7,45.5,29.85,West,273,4.0,5.0,29,0.00,,,0.00,Wunderground v.1.15,2013-08-13 15:20:00,
2013-08-13 08:25:00,81.2,45.0,29.85,West,271,5.0,7.0,28,0.00,,,0.00,Wunderground v.1.15,2013-08-13 15:25:00,
2013-08-13 08:30:00,81.6,45.3,29.85,West,262,4.0,5.0,28,0.00,,,0.00,Wunderground v.1.15,2013-08-13 15:30:00,
2013-08-13 08:35:00,82.0,44.7,29.85,WSW,248,2.0,8.0,27,0.00,,,0.00,Wunderground v.1.15,2013-08-13 15:35:00,
2013-08-13 08:40:00,82.7,45.3,29.85,WSW,248,2.0,3.0,27,0.00,,,0.00,Wunderground v.1.15,2013-08-13 15:40:00,
2013-08-13 08:45:00,83.6,46.1,29.85,WSW,247,3.0,6.0,27,0.00,,,0.00,Wunderground v.1.15,2013-08-13 15:45:00,
2013-08-13 08:50:00,84.5,44.8,29.85,WSW,241,4.0,4.0,25,0.00,,,0.00,Wunderground v.1.15,2013-08-13 15:50:00,
2013-08-13 08:55:00,85.3,44.4,29.85,SW,234,6.0,6.0,24,0.00,,,0.00,Wunderground v.1.15,2013-08-13 15:55:00,
2013-08-13 09:00:00,85.9,44.9,29.84,SW,229,2.0,4.0,24,0.00,,,0.00,Wunderground v.1.15,2013-08-13 16:00:00,
2013-08-13 09:05:00,86.6,44.4,29.84,SW,228,1.0,5.0,23,0.00,,,0.00,Wunderground v.1.15,2013-08-13 16:05:00,
2013-08-13 09:10:00,87.3,43.8,29.85,SW,227,1.0,2.0,22,0.00,,,0.00,Wunderground v.1.15,2013-08-13 16:10:00,
2013-08-13 09:15:00,87.9,44.3,29.84,SW,227,1.0,5.0,22,0.00,,,0.00,Wunderground v.1.15,2013-08-13 16:15:00,
2013-08-13 09:20:00,88.4,43.5,29.84,SW,227,3.0,5.0,21,0.00,,,0.00,Wunderground v.1.15,2013-08-13 16:20:00,
2013-08-13 09:25:00,88.9,43.9,29.84,SSW,211,2.0,6.0,21,0.00,,,0.00,Wunderground v.1.15,2013-08-13 16:25:00,
2013-08-13 09:30:00,89.4,45.5,29.85,SSW,209,4.0,5.0,22,0.00,,,0.00,Wunderground v.1.15,2013-08-13 16:30:00,
2013-08-13 09:35:00,89.9,44.7,29.84,SSW,205,2.0,6.0,21,0.00,,,0.00,Wunderground v.1.15,2013-08-13 16:35:00,
2013-08-13 09:41:00,90.6,45.3,29.84,SSW,205,3.0,3.0,21,0.00,,,0.00,Wunderground v.1.15,2013-08-13 16:41:00,
2013-08-13 09:46:00,91.1,44.4,29.85,SSW,205,4.0,6.0,20,0.00,,,0.00,Wunderground v.1.15,2013-08-13 16:46:00,
2013-08-13 09:51:00,91.5,43.4,29.85,SSW,196,5.0,5.0,19,0.00,,,0.00,Wunderground v.1.15,2013-08-13 16:51:00,
2013-08-13 09:56:00,91.8,43.7,29.85,SSW,192,2.0,6.0,19,0.00,,,0.00,Wunderground v.1.15,2013-08-13 16:56:00,
2013-08-13 10:01:00,92.0,40.9,29.85,SSW,192,2.0,5.0,17,0.00,,,0.00,Wunderground v.1.15,2013-08-13 17:01:00,
2013-08-13 10:06:00,92.3,42.7,29.85,SSW,192,0.0,5.0,18,0.00,,,0.00,Wunderground v.1.15,2013-08-13 17:06:00,
2013-08-13 10:12:00,93.1,41.8,29.84,SSW,192,0.0,1.0,17,0.00,,,0.00,Wunderground v.1.15,2013-08-13 17:12:00,
2013-08-13 10:17:00,93.8,39.2,29.84,SSW,192,0.0,2.0,15,0.00,,,0.00,Wunderground v.1.15,2013-08-13 17:17:00,
2013-08-13 10:22:00,94.7,39.9,29.84,SSW,192,0.0,1.0,15,0.00,,,0.00,Wunderground v.1.15,2013-08-13 17:22:00,
2013-08-13 10:27:00,95.8,39.0,29.84,SSW,192,0.0,2.0,14,0.00,,,0.00,Wunderground v.1.15,2013-08-13 17:27:00,
2013-08-13 10:32:00,96.0,39.1,29.84,SSW,192,2.0,4.0,14,0.00,,,0.00,Wunderground v.1.15,2013-08-13 17:32:00,
2013-08-13 10:38:00,95.7,38.9,29.83,SW,232,3.0,8.0,14,0.00,,,0.00,Wunderground v.1.15,2013-08-13 17:38:00,
2013-08-13 10:43:00,95.4,38.6,29.83,SW,232,1.0,5.0,14,0.00,,,0.00,Wunderground v.1.15,2013-08-13 17:43:00,
2013-08-13 10:48:00,95.6,36.9,29.83,WSW,241,0.0,6.0,13,0.00,,,0.00,Wunderground v.1.15,2013-08-13 17:48:00,
2013-08-13 10:53:00,96.0,37.2,29.83,WSW,241,3.0,5.0,13,0.00,,,0.00,Wunderground v.1.15,2013-08-13 17:53:00,
2013-08-13 10:58:00,96.3,37.5,29.83,WSW,241,0.0,5.0,13,0.00,,,0.00,Wunderground v.1.15,2013-08-13 17:58:00,
2013-08-13 11:03:00,96.6,35.7,29.83,WSW,255,2.0,7.0,12,0.00,,,0.00,Wunderground v.1.15,2013-08-13 18:03:00,
2013-08-13 11:08:00,96.4,37.5,29.83,WSW,258,4.0,7.0,13,0.00,,,0.00,Wunderground v.1.15,2013-08-13 18:08:00,
2013-08-13 11:13:00,96.8,37.8,29.83,WSW,258,0.0,3.0,13,0.00,,,0.00,Wunderground v.1.15,2013-08-13 18:13:00,
2013-08-13 11:18:00,97.4,34.1,29.82,WSW,258,5.0,6.0,11,0.00,,,0.00,Wunderground v.1.15,2013-08-13 18:18:00,
2013-08-13 11:23:00,97.5,34.2,29.82,WSW,258,1.0,5.0,11,0.00,,,0.00,Wunderground v.1.15,2013-08-13 18:23:00,
2013-08-13 11:28:00,97.9,36.7,29.82,WSW,258,0.0,5.0,12,0.00,,,0.00,Wunderground v.1.15,2013-08-13 18:28:00,
2013-08-13 11:33:00,98.7,37.3,29.82,WSW,258,4.0,5.0,12,0.00,,,0.00,Wunderground v.1.15,2013-08-13 18:33:00,
2013-08-13 11:38:00,98.6,35.0,29.81,West,281,5.0,9.0,11,0.00,,,0.00,Wunderground v.1.15,2013-08-13 18:38:00,
2013-08-13 11:43:00,98.5,37.1,29.81,WNW,284,5.0,7.0,12,0.00,,,0.00,Wunderground v.1.15,2013-08-13 18:43:00,
2013-08-13 11:48:00,98.4,37.1,29.81,WNW,298,2.0,11.0,12,0.00,,,0.00,Wunderground v.1.15,2013-08-13 18:48:00,
2013-08-13 11:53:00,98.1,36.8,29.81,NNW,327,5.0,11.0,12,0.00,,,0.00,Wunderground v.1.15,2013-08-13 18:53:00,
2013-08-13 11:58:00,98.0,36.7,29.81,NNW,327,7.0,11.0,12,0.00,,,0.00,Wunderground v.1.15,2013-08-13 18:58:00,
2013-08-13 12:03:00,97.6,36.4,29.81,NNW,348,0.0,9.0,12,0.00,,,0.00,Wunderground v.1.15,2013-08-13 19:03:00,
2013-08-13 12:08:00,98.1,36.8,29.81,NNW,345,6.0,9.0,12,0.00,,,0.00,Wunderground v.1.15,2013-08-13 19:08:00,
2013-08-13 12:13:00,98.4,37.1,29.80,NW,309,6.0,14.0,12,0.00,,,0.00,Wunderground v.1.15,2013-08-13 19:13:00,
2013-08-13 12:18:00,98.7,37.3,29.80,NW,309,5.0,14.0,12,0.00,,,0.00,Wunderground v.1.15,2013-08-13 19:18:00,
2013-08-13 12:23:00,99.1,37.6,29.80,NW,325,5.0,11.0,12,0.00,,,0.00,Wunderground v.1.15,2013-08-13 19:23:00,
2013-08-13 12:28:00,99.6,38.0,29.79,NW,326,2.0,14.0,12,0.00,,,0.00,Wunderground v.1.15,2013-08-13 19:28:00,
2013-08-13 12:33:00,99.2,35.5,29.79,NW,326,1.0,7.0,11,0.00,,,0.00,Wunderground v.1.15,2013-08-13 19:33:00,
2013-08-13 12:38:00,99.5,37.9,29.79,NW,323,9.0,9.0,12,0.00,,,0.00,Wunderground v.1.15,2013-08-13 19:38:00,
2013-08-13 12:43:00,99.3,37.7,29.79,WNW,298,0.0,15.0,12,0.00,,,0.00,Wunderground v.1.15,2013-08-13 19:43:00,
2013-08-13 12:48:00,99.5,37.9,29.79,WNW,297,1.0,15.0,12,0.00,,,0.00,Wunderground v.1.15,2013-08-13 19:48:00,
2013-08-13 12:53:00,99.8,38.1,29.79,WNW,297,0.0,6.0,12,0.00,,,0.00,Wunderground v.1.15,2013-08-13 19:53:00,
2013-08-13 12:58:00,99.9,38.2,29.78,WNW,297,1.0,6.0,12,0.00,,,0.00,Wunderground v.1.15,2013-08-13 19:58:00,
2013-08-13 13:03:00,100.4,38.6,29.78,WNW,300,5.0,11.0,12,0.00,,,0.00,Wunderground v.1.15,2013-08-13 20:03:00,
2013-08-13 13:08:00,100.2,38.4,29.78,WNW,302,2.0,11.0,12,0.00,,,0.00,Wunderground v.1.15,2013-08-13 20:08:00,
2013-08-13 13:14:00,100.2,38.4,29.78,WNW,302,1.0,5.0,12,0.00,,,0.00,Wunderground v.1.15,2013-08-13 20:14:00,
2013-08-13 13:19:00,100.8,36.7,29.78,WNW,302,2.0,7.0,11,0.00,,,0.00,Wunderground v.1.15,2013-08-13 20:19:00,
2013-08-13 13:24:00,101.4,37.1,29.78,NW,320,8.0,9.0,11,0.00,,,0.00,Wunderground v.1.15,2013-08-13 20:24:00,
2013-08-13 13:29:00,101.0,36.8,29.77,NW,323,6.0,11.0,11,0.00,,,0.00,Wunderground v.1.15,2013-08-13 20:29:00,
2013-08-13 13:34:00,100.4,38.6,29.77,NW,315,2.0,11.0,12,0.00,,,0.00,Wunderground v.1.15,2013-08-13 20:34:00,
2013-08-13 13:39:00,100.2,36.2,29.77,NW,315,6.0,11.0,11,0.00,,,0.00,Wunderground v.1.15,2013-08-13 20:39:00,
2013-08-13 13:44:00,100.8,36.7,29.77,NW,311,4.0,12.0,11,0.00,,,0.00,Wunderground v.1.15,2013-08-13 20:44:00,
2013-08-13 13:49:00,101.2,37.0,29.77,NW,314,2.0,12.0,11,0.00,,,0.00,Wunderground v.1.15,2013-08-13 20:49:00,
2013-08-13 13:54:00,101.3,37.1,29.76,NW,311,2.0,9.0,11,0.00,,,0.00,Wunderground v.1.15,2013-08-13 20:54:00,
2013-08-13 13:59:00,101.4,37.1,29.76,NW,311,0.0,9.0,11,0.00,,,0.00,Wunderground v.1.15,2013-08-13 20:59:00,
2013-08-13 14:04:00,101.5,37.2,29.76,NW,315,11.0,13.0,11,0.00,,,0.00,Wunderground v.1.15,2013-08-13 21:04:00,
2013-08-13 14:09:00,101.4,39.4,29.75,NW,318,1.0,13.0,12,0.00,,,0.00,Wunderground v.1.15,2013-08-13 21:09:00,
2013-08-13 14:14:00,101.5,37.2,29.75,NW,323,5.0,11.0,11,0.00,,,0.00,Wunderground v.1.15,2013-08-13 21:14:00,
2013-08-13 14:19:00,101.5,37.2,29.75,NW,313,8.0,13.0,11,0.00,,,0.00,Wunderground v.1.15,2013-08-13 21:19:00,
2013-08-13 14:24:00,101.3,39.3,29.75,NW,326,6.0,8.0,12,0.00,,,0.00,Wunderground v.1.15,2013-08-13 21:24:00,
2013-08-13 14:29:00,101.6,39.5,29.74,WNW,300,12.0,16.0,12,0.00,,,0.00,Wunderground v.1.15,2013-08-13 21:29:00,
2013-08-13 14:34:00,101.9,39.7,29.74,WNW,301,1.0,12.0,12,0.00,,,0.00,Wunderground v.1.15,2013-08-13 21:34:00,
2013-08-13 14:39:00,102.2,40.0,29.74,WNW,301,0.0,12.0,12,0.00,,,0.00,Wunderground v.1.15,2013-08-13 21:39:00,
2013-08-13 14:44:00,102.5,40.2,29.74,WNW,301,1.0,9.0,12,0.00,,,0.00,Wunderground v.1.15,2013-08-13 21:44:00,
2013-08-13 14:49:00,103.0,38.4,29.73,NW,310,9.0,12.0,11,0.00,,,0.00,Wunderground v.1.15,2013-08-13 21:49:00,
2013-08-13 14:54:00,102.6,38.1,29.73,NW,316,2.0,14.0,11,0.00,,,0.00,Wunderground v.1.15,2013-08-13 21:54:00,
2013-08-13 14:59:00,102.4,37.9,29.73,NW,309,8.0,14.0,11,0.00,,,0.00,Wunderground v.1.15,2013-08-13 21:59:00,
2013-08-13 15:04:00,102.3,37.8,29.73,NW,312,7.0,11.0,11,0.00,,,0.00,Wunderground v.1.15,2013-08-13 22:04:00,
2013-08-13 15:09:00,102.1,37.7,29.73,NW,314,11.0,13.0,11,0.00,,,0.00,Wunderground v.1.15,2013-08-13 22:09:00,
2013-08-13 15:14:00,101.8,37.4,29.73,NW,309,6.0,13.0,11,0.00,,,0.00,Wunderground v.1.15,2013-08-13 22:14:00,
2013-08-13 15:19:00,102.0,37.6,29.73,NNW,329,7.0,13.0,11,0.00,,,0.00,Wunderground v.1.15,2013-08-13 22:19:00,
2013-08-13 15:24:00,102.3,37.8,29.73,NW,313,6.0,12.0,11,0.00,,,0.00,Wunderground v.1.15,2013-08-13 22:24:00,
2013-08-13 15:29:00,102.7,38.1,29.73,NW,312,6.0,12.0,11,0.00,,,0.00,Wunderground v.1.15,2013-08-13 22:29:00,
2013-08-13 15:34:00,102.6,38.1,29.72,NW,311,4.0,11.0,11,0.00,,,0.00,Wunderground v.1.15,2013-08-13 22:34:00,
2013-08-13 15:39:00,102.3,37.8,29.72,NW,311,2.0,11.0,11,0.00,,,0.00,Wunderground v.1.15,2013-08-13 22:39:00,
2013-08-13 15:44:00,102.1,37.7,29.72,NW,311,6.0,11.0,11,0.00,,,0.00,Wunderground v.1.15,2013-08-13 22:44:00,
2013-08-13 15:49:00,101.8,39.7,29.72,NW,321,6.0,14.0,12,0.00,,,0.00,Wunderground v.1.15,2013-08-13 22:49:00,
2013-08-13 15:54:00,101.7,37.4,29.72,NW,321,4.0,11.0,11,0.00,,,0.00,Wunderground v.1.15,2013-08-13 22:54:00,
2013-08-13 16:00:00,101.9,37.5,29.71,NW,324,7.0,7.0,11,0.00,,,0.00,Wunderground v.1.15,2013-08-13 23:00:00,
2013-08-13 16:05:00,102.0,37.6,29.71,NW,319,6.0,12.0,11,0.00,,,0.00,Wunderground v.1.15,2013-08-13 23:05:00,
2013-08-13 16:10:00,101.8,37.4,29.71,NW,307,4.0,7.0,11,0.00,,,0.00,Wunderground v.1.15,2013-08-13 23:10:00,
2013-08-13 16:15:00,101.7,37.4,29.71,NW,311,4.0,14.0,11,0.00,,,0.00,Wunderground v.1.15,2013-08-13 23:15:00,
2013-08-13 16:20:00,101.8,37.4,29.70,NW,320,8.0,8.0,11,0.00,,,0.00,Wunderground v.1.15,2013-08-13 23:20:00,
2013-08-13 16:25:00,101.8,37.4,29.70,NW,318,8.0,14.0,11,0.00,,,0.00,Wunderground v.1.15,2013-08-13 23:25:00,
2013-08-13 16:30:00,101.9,39.7,29.70,NW,306,5.0,7.0,12,0.00,,,0.00,Wunderground v.1.15,2013-08-13 23:30:00,
2013-08-13 16:35:00,101.7,39.6,29.70,NW,315,7.0,16.0,12,0.00,,,0.00,Wunderground v.1.15,2013-08-13 23:35:00,
2013-08-13 16:40:00,101.5,39.4,29.70,NW,306,0.0,6.0,12,0.00,,,0.00,Wunderground v.1.15,2013-08-13 23:40:00,
2013-08-13 16:45:00,101.9,39.7,29.70,NW,307,13.0,14.0,12,0.00,,,0.00,Wunderground v.1.15,2013-08-13 23:45:00,
2013-08-13 16:50:00,101.6,39.5,29.70,NW,311,6.0,8.0,12,0.00,,,0.00,Wunderground v.1.15,2013-08-13 23:50:00,
2013-08-13 16:55:00,101.7,39.6,29.70,NW,310,9.0,12.0,12,0.00,,,0.00,Wunderground v.1.15,2013-08-13 23:55:00,
2013-08-13 17:00:00,101.6,39.5,29.70,NW,308,2.0,5.0,12,0.00,,,0.00,Wunderground v.1.15,2013-08-14 00:00:00,
2013-08-13 17:05:00,101.3,39.3,29.70,NW,315,7.0,13.0,12,0.00,,,0.00,Wunderground v.1.15,2013-08-14 00:05:00,
2013-08-13 17:10:00,100.8,38.9,29.70,NW,304,11.0,12.0,12,0.00,,,0.00,Wunderground v.1.15,2013-08-14 00:10:00,
2013-08-13 17:15:00,100.5,38.7,29.70,NW,308,4.0,12.0,12,0.00,,,0.00,Wunderground v.1.15,2013-08-14 00:15:00,
2013-08-13 17:20:00,100.1,38.4,29.70,NW,308,8.0,8.0,12,0.00,,,0.00,Wunderground v.1.15,2013-08-14 00:20:00,
2013-08-13 17:25:00,100.0,38.3,29.70,NW,308,0.0,9.0,12,0.00,,,0.00,Wunderground v.1.15,2013-08-14 00:25:00,
2013-08-13 17:30:00,100.0,38.3,29.69,NW,304,4.0,6.0,12,0.00,,,0.00,Wunderground v.1.15,2013-08-14 00:30:00,
2013-08-13 17:35:00,99.8,38.1,29.69,NW,307,11.0,13.0,12,0.00,,,0.00,Wunderground v.1.15,2013-08-14 00:35:00,
2013-08-13 17:40:00,99.5,37.9,29.70,NW,310,6.0,12.0,12,0.00,,,0.00,Wunderground v.1.15,2013-08-14 00:40:00,
2013-08-13 17:45:00,99.3,37.7,29.69,NW,306,6.0,14.0,12,0.00,,,0.00,Wunderground v.1.15,2013-08-14 00:45:00,
2013-08-13 17:50:00,99.2,39.7,29.69,NW,308,5.0,9.0,13,0.00,,,0.00,Wunderground v.1.15,2013-08-14 00:50:00,
2013-08-13 17:55:00,99.1,37.6,29.69,NW,321,8.0,15.0,12,0.00,,,0.00,Wunderground v.1.15,2013-08-14 00:55:00,
2013-08-13 18:00:00,98.9,39.5,29.69,WNW,302,7.0,8.0,13,0.00,,,0.00,Wunderground v.1.15,2013-08-14 01:00:00,
2013-08-13 18:05:00,98.7,39.3,29.69,NW,310,6.0,16.0,13,0.00,,,0.00,Wunderground v.1.15,2013-08-14 01:05:00,
2013-08-13 18:10:00,98.4,39.1,29.69,NW,312,6.0,7.0,13,0.00,,,0.00,Wunderground v.1.15,2013-08-14 01:10:00,
2013-08-13 18:15:00,98.2,38.9,29.69,WNW,299,2.0,14.0,13,0.00,,,0.00,Wunderground v.1.15,2013-08-14 01:15:00,
2013-08-13 18:16:00,98.2,38.9,29.69,WNW,299,4.0,14.0,13,0.00,,,0.00,Wunderground v.1.15,2013-08-14 01:16:00,
2013-08-13 18:21:00,98.0,38.8,29.69,WNW,300,12.0,13.0,13,0.00,,,0.00,Wunderground v.1.15,2013-08-14 01:21:00,
2013-08-13 18:26:00,97.7,38.5,29.69,WNW,300,5.0,14.0,13,0.00,,,0.00,Wunderground v.1.15,2013-08-14 01:26:00,
2013-08-13 18:31:00,97.5,38.4,29.69,NW,304,9.0,12.0,13,0.00,,,0.00,Wunderground v.1.15,2013-08-14 01:31:00,
2013-08-13 18:36:00,97.3,38.2,29.69,WNW,298,2.0,13.0,13,0.00,,,0.00,Wunderground v.1.15,2013-08-14 01:36:00,
2013-08-13 18:41:00,97.1,38.1,29.69,NW,311,5.0,15.0,13,0.00,,,0.00,Wunderground v.1.15,2013-08-14 01:41:00,
2013-08-13 18:46:00,96.8,37.8,29.70,WNW,300,6.0,15.0,13,0.00,,,0.00,Wunderground v.1.15,2013-08-14 01:46:00,
2013-08-13 18:51:00,96.6,37.7,29.69,WNW,295,12.0,15.0,13,0.00,,,0.00,Wunderground v.1.15,2013-08-14 01:51:00,
2013-08-13 18:56:00,96.4,39.4,29.69,WNW,296,4.0,15.0,14,0.00,,,0.00,Wunderground v.1.15,2013-08-14 01:56:00,
2013-08-13 19:01:00,96.1,39.2,29.70,WNW,296,5.0,6.0,14,0.00,,,0.00,Wunderground v.1.15,2013-08-14 02:01:00,
2013-08-13 19:06:00,95.9,39.0,29.70,WNW,300,6.0,12.0,14,0.00,,,0.00,Wunderground v.1.15,2013-08-14 02:06:00,
2013-08-13 19:11:00,95.7,38.9,29.70,WNW,299,2.0,8.0,14,0.00,,,0.00,Wunderground v.1.15,2013-08-14 02:11:00,
2013-08-13 19:16:00,95.4,38.6,29.70,WNW,300,1.0,11.0,14,0.00,,,0.00,Wunderground v.1.15,2013-08-14 02:16:00,
2013-08-13 19:21:00,95.1,38.4,29.70,WNW,300,5.0,5.0,14,0.00,,,0.00,Wunderground v.1.15,2013-08-14 02:21:00,
2013-08-13 19:26:00,94.8,39.9,29.70,WNW,300,0.0,8.0,15,0.00,,,0.00,Wunderground v.1.15,2013-08-14 02:26:00,
2013-08-13 19:31:00,94.6,39.8,29.70,WNW,300,5.0,6.0,15,0.00,,,0.00,Wunderground v.1.15,2013-08-14 02:31:00,
2013-08-13 19:36:00,94.3,39.5,29.70,WNW,300,0.0,6.0,15,0.00,,,0.00,Wunderground v.1.15,2013-08-14 02:36:00,
2013-08-13 19:41:00,94.1,39.4,29.70,WNW,300,2.0,5.0,15,0.00,,,0.00,Wunderground v.1.15,2013-08-14 02:41:00,
2013-08-13 19:46:00,93.7,39.1,29.70,WNW,300,2.0,6.0,15,0.00,,,0.00,Wunderground v.1.15,2013-08-14 02:46:00,
2013-08-13 19:51:00,93.4,38.8,29.70,WNW,300,0.0,1.0,15,0.00,,,0.00,Wunderground v.1.15,2013-08-14 02:51:00,
2013-08-13 19:56:00,93.1,40.3,29.70,WNW,300,2.0,6.0,16,0.00,,,0.00,Wunderground v.1.15,2013-08-14 02:56:00,
2013-08-13 20:01:00,92.8,40.0,29.70,WNW,300,2.0,4.0,16,0.00,,,0.00,Wunderground v.1.15,2013-08-14 03:01:00,
2013-08-13 20:06:00,92.5,39.8,29.70,WNW,300,0.0,4.0,16,0.00,,,0.00,Wunderground v.1.15,2013-08-14 03:06:00,
2013-08-13 20:11:00,92.2,39.5,29.71,WNW,300,0.0,4.0,16,0.00,,,0.00,Wunderground v.1.15,2013-08-14 03:11:00,
2013-08-13 20:16:00,92.0,39.4,29.71,WNW,300,7.0,7.0,16,0.00,,,0.00,Wunderground v.1.15,2013-08-14 03:16:00,
2013-08-13 20:21:00,91.8,39.2,29.71,WNW,300,2.0,2.0,16,0.00,,,0.00,Wunderground v.1.15,2013-08-14 03:21:00,
2013-08-13 20:26:00,91.6,40.6,29.72,WNW,300,1.0,4.0,17,0.00,,,0.00,Wunderground v.1.15,2013-08-14 03:26:00,
2013-08-13 20:31:00,91.4,40.5,29.72,WNW,300,2.0,2.0,17,0.00,,,0.00,Wunderground v.1.15,2013-08-14 03:31:00,
2013-08-13 20:36:00,91.4,40.5,29.72,WNW,300,0.0,8.0,17,0.00,,,0.00,Wunderground v.1.15,2013-08-14 03:36:00,
2013-08-13 20:41:00,91.3,40.4,29.72,WNW,300,5.0,6.0,17,0.00,,,0.00,Wunderground v.1.15,2013-08-14 03:41:00,
2013-08-13 20:46:00,91.2,40.3,29.73,WNW,300,0.0,6.0,17,0.00,,,0.00,Wunderground v.1.15,2013-08-14 03:46:00,
2013-08-13 20:51:00,91.0,40.1,29.73,WNW,300,0.0,1.0,17,0.00,,,0.00,Wunderground v.1.15,2013-08-14 03:51:00,
2013-08-13 20:56:00,90.7,39.9,29.73,WNW,300,0.0,4.0,17,0.00,,,0.00,Wunderground v.1.15,2013-08-14 03:56:00,
2013-08-13 21:01:00,90.4,39.6,29.74,WNW,300,0.0,1.0,17,0.00,,,0.00,Wunderground v.1.15,2013-08-14 04:01:00,
2013-08-13 21:02:00,90.4,39.6,29.74,WNW,300,0.0,1.0,17,0.00,,,0.00,Wunderground v.1.15,2013-08-14 04:02:00,
2013-08-13 21:07:00,90.0,39.3,29.74,WNW,300,0.0,2.0,17,0.00,,,0.00,Wunderground v.1.15,2013-08-14 04:07:00,
2013-08-13 21:12:00,89.6,40.5,29.74,WNW,300,0.0,1.0,18,0.00,,,0.00,Wunderground v.1.15,2013-08-14 04:12:00,
2013-08-13 21:17:00,89.2,40.1,29.74,WNW,300,0.0,1.0,18,0.00,,,0.00,Wunderground v.1.15,2013-08-14 04:17:00,
2013-08-13 21:22:00,89.0,40.0,29.75,WNW,300,0.0,0.0,18,0.00,,,0.00,Wunderground v.1.15,2013-08-14 04:22:00,
2013-08-13 21:27:00,88.8,39.8,29.75,WNW,300,0.0,0.0,18,0.00,,,0.00,Wunderground v.1.15,2013-08-14 04:27:00,
2013-08-13 21:32:00,88.8,39.8,29.75,WNW,300,0.0,0.0,18,0.00,,,0.00,Wunderground v.1.15,2013-08-14 04:32:00,
2013-08-13 21:37:00,88.7,39.7,29.75,WNW,300,0.0,0.0,18,0.00,,,0.00,Wunderground v.1.15,2013-08-14 04:37:00,
2013-08-13 21:42:00,88.6,39.7,29.75,WNW,300,0.0,0.0,18,0.00,,,0.00,Wunderground v.1.15,2013-08-14 04:42:00,
2013-08-13 21:47:00,88.5,39.6,29.75,WNW,300,0.0,0.0,18,0.00,,,0.00,Wunderground v.1.15,2013-08-14 04:47:00,
2013-08-13 21:52:00,88.4,39.5,29.75,WNW,300,0.0,0.0,18,0.00,,,0.00,Wunderground v.1.15,2013-08-14 04:52:00,
2013-08-13 21:57:00,88.3,39.4,29.75,WNW,300,0.0,0.0,18,0.00,,,0.00,Wunderground v.1.15,2013-08-14 04:57:00,
2013-08-13 22:02:00,88.3,39.4,29.75,WNW,300,0.0,0.0,18,0.00,,,0.00,Wunderground v.1.15,2013-08-14 05:02:00,
2013-08-13 22:07:00,88.3,39.4,29.75,WNW,300,0.0,0.0,18,0.00,,,0.00,Wunderground v.1.15,2013-08-14 05:07:00,
2013-08-13 22:12:00,88.2,39.3,29.75,WNW,300,0.0,0.0,18,0.00,,,0.00,Wunderground v.1.15,2013-08-14 05:12:00,
2013-08-13 22:17:00,88.1,39.3,29.75,WNW,300,0.0,0.0,18,0.00,,,0.00,Wunderground v.1.15,2013-08-14 05:17:00,
2013-08-13 22:22:00,88.1,39.3,29.75,WNW,300,0.0,0.0,18,0.00,,,0.00,Wunderground v.1.15,2013-08-14 05:22:00,
2013-08-13 22:27:00,88.0,39.2,29.75,WNW,300,0.0,0.0,18,0.00,,,0.00,Wunderground v.1.15,2013-08-14 05:27:00,
2013-08-13 22:32:00,87.9,39.1,29.75,WNW,300,0.0,0.0,18,0.00,,,0.00,Wunderground v.1.15,2013-08-14 05:32:00,
2013-08-13 22:37:00,87.7,38.9,29.75,WNW,300,0.0,1.0,18,0.00,,,0.00,Wunderground v.1.15,2013-08-14 05:37:00,
2013-08-13 22:42:00,87.7,38.9,29.75,WNW,300,0.0,0.0,18,0.00,,,0.00,Wunderground v.1.15,2013-08-14 05:42:00,
2013-08-13 22:47:00,87.6,38.8,29.74,WNW,300,0.0,0.0,18,0.00,,,0.00,Wunderground v.1.15,2013-08-14 05:47:00,
2013-08-13 22:52:00,87.5,38.8,29.75,WNW,300,0.0,0.0,18,0.00,,,0.00,Wunderground v.1.15,2013-08-14 05:52:00,
2013-08-13 22:57:00,87.4,38.7,29.75,WNW,300,0.0,0.0,18,0.00,,,0.00,Wunderground v.1.15,2013-08-14 05:57:00,
2013-08-13 23:02:00,87.4,38.7,29.75,WNW,300,0.0,0.0,18,0.00,,,0.00,Wunderground v.1.15,2013-08-14 06:02:00,
2013-08-13 23:07:00,87.3,38.6,29.75,WNW,300,0.0,0.0,18,0.00,,,0.00,Wunderground v.1.15,2013-08-14 06:07:00,
2013-08-13 23:12:00,87.1,38.4,29.75,WNW,300,0.0,0.0,18,0.00,,,0.00,Wunderground v.1.15,2013-08-14 06:12:00,
2013-08-13 23:17:00,87.0,38.4,29.75,WNW,300,0.0,0.0,18,0.00,,,0.00,Wunderground v.1.15,2013-08-14 06:17:00,
2013-08-13 23:22:00,86.9,38.3,29.75,WNW,300,0.0,0.0,18,0.00,,,0.00,Wunderground v.1.15,2013-08-14 06:22:00,
2013-08-13 23:27:00,86.9,38.3,29.75,WNW,300,1.0,5.0,18,0.00,,,0.00,Wunderground v.1.15,2013-08-14 06:27:00,
2013-08-13 23:32:00,87.0,38.4,29.75,WNW,300,0.0,1.0,18,0.00,,,0.00,Wunderground v.1.15,2013-08-14 06:32:00,
2013-08-13 23:37:00,87.0,38.4,29.75,WNW,300,0.0,2.0,18,0.00,,,0.00,Wunderground v.1.15,2013-08-14 06:37:00,
2013-08-13 23:42:00,86.9,38.3,29.75,WNW,300,2.0,2.0,18,0.00,,,0.00,Wunderground v.1.15,2013-08-14 06:42:00,
2013-08-13 23:47:00,86.8,38.2,29.75,WNW,300,0.0,2.0,18,0.00,,,0.00,Wunderground v.1.15,2013-08-14 06:47:00,
2013-08-13 23:52:00,86.5,38.0,29.75,WNW,300,0.0,0.0,18,0.00,,,0.00,Wunderground v.1.15,2013-08-14 06:52:00,
2013-08-13 23:57:00,86.3,37.8,29.75,WNW,300,0.0,1.0,18,0.00,,,0.00,Wunderground v.1.15,2013-08-14 06:57:00,